TimePST,TemperatureF,Dew PointF,Humidity,Sea Level PressureIn,VisibilityMPH,Wind Direction,Wind SpeedMPH,Gust SpeedMPH,PrecipitationIn,Events,Conditions,WindDirDegrees,DateUTC
12:56 AM,36.0,25.0,64,30.22,10.0,South,8.1,-,N/A,,Clear,170,2013-11-13 08:56:00
1:56 AM,36.0,24.1,62,30.22,10.0,SSE,9.2,-,N/A,,Clear,150,2013-11-13 09:56:00
2:56 AM,34.0,24.1,67,30.21,10.0,South,5.8,-,N/A,,Clear,170,2013-11-13 10:56:00
3:56 AM,33.1,23.0,66,30.20,10.0,SSE,8.1,-,N/A,,Clear,160,2013-11-13 11:56:00
4:56 AM,33.1,23.0,66,30.21,10.0,SSE,8.1,-,N/A,,Clear,150,2013-11-13 12:56:00
5:56 AM,32.0,23.0,69,30.22,10.0,WSW,3.5,-,N/A,,Partly Cloudy,240,2013-11-13 13:56:00
6:56 AM,28.0,21.0,75,30.21,10.0,ESE,3.5,-,N/A,,Partly Cloudy,110,2013-11-13 14:56:00
7:56 AM,39.0,25.0,57,30.23,10.0,Calm,Calm,-,N/A,,Partly Cloudy,0,2013-11-13 15:56:00
8:56 AM,45.0,25.0,46,30.24,10.0,Calm,Calm,-,N/A,,Scattered Clouds,0,2013-11-13 16:56:00
9:56 AM,51.1,25.0,36,30.24,10.0,Calm,Calm,-,N/A,,Scattered Clouds,0,2013-11-13 17:56:00
10:56 AM,55.9,25.0,30,30.23,10.0,Variable,3.5,-,N/A,,Scattered Clouds,0,2013-11-13 18:56:00
11:56 AM,59.0,26.1,28,30.19,10.0,Calm,Calm,-,N/A,,Partly Cloudy,0,2013-11-13 19:56:00
12:56 PM,63.0,28.0,27,30.18,10.0,North,5.8,-,N/A,,Scattered Clouds,350,2013-11-13 20:56:00
1:56 PM,64.0,27.0,25,30.17,10.0,North,6.9,-,N/A,,Scattered Clouds,360,2013-11-13 21:56:00
2:56 PM,64.0,28.0,26,30.17,10.0,North,6.9,-,N/A,,Scattered Clouds,10,2013-11-13 22:56:00
3:56 PM,62.1,28.9,29,30.17,10.0,North,6.9,-,N/A,,Scattered Clouds,10,2013-11-13 23:56:00
4:56 PM,55.0,28.0,35,30.16,10.0,North,4.6,-,N/A,,Scattered Clouds,10,2013-11-14 00:56:00
5:56 PM,46.0,27.0,47,30.16,10.0,Calm,Calm,-,N/A,,Clear,0,2013-11-14 01:56:00
6:56 PM,48.0,28.0,46,30.16,10.0,West,3.5,-,N/A,,Clear,270,2013-11-14 02:56:00
7:56 PM,44.1,28.0,53,30.16,10.0,North,3.5,-,N/A,,Partly Cloudy,360,2013-11-14 03:56:00
8:56 PM,41.0,27.0,57,30.16,10.0,North,6.9,-,N/A,,Clear,360,2013-11-14 04:56:00
9:56 PM,37.9,26.1,62,30.17,10.0,SSW,8.1,-,N/A,,Clear,210,2013-11-14 05:56:00
10:56 PM,33.1,24.1,70,30.15,10.0,SE,5.8,-,N/A,,Clear,140,2013-11-14 06:56:00
11:56 PM,35.1,25.0,67,30.14,10.0,SSE,5.8,-,N/A,,Clear,160,2013-11-14 07:56:00